Time,TemperatureF,DewpointF,PressureIn,WindDirection,WindDirectionDegrees,WindSpeedMPH,WindSpeedGustMPH,Humidity,HourlyPrecipIn,Conditions,Clouds,dailyrainin,SoftwareType,DateUTC
2013-03-22 00:11:00,41.8,26.0,29.54,SW,216,1.0,2.0,53,0.00,,,0.00,weatherlink.com 1.10,2013-03-22 07:11:00,
2013-03-22 00:26:00,41.6,26.0,29.54,West,279,0.0,1.0,55,0.00,,,0.00,weatherlink.com 1.10,2013-03-22 07:26:00,
2013-03-22 00:56:00,40.3,27.0,29.54,NE,42,0.0,2.0,59,0.00,,,0.00,weatherlink.com 1.10,2013-03-22 07:56:00,
2013-03-22 01:11:00,39.5,26.0,29.55,ENE,65,1.0,2.0,59,0.00,,,0.00,weatherlink.com 1.10,2013-03-22 08:11:00,
2013-03-22 01:26:00,38.8,26.0,29.55,NNW,338,0.0,3.0,60,0.00,,,0.00,weatherlink.com 1.10,2013-03-22 08:26:00,
2013-03-22 01:41:00,38.3,25.0,29.55,NNW,338,0.0,1.0,60,0.00,,,0.00,weatherlink.com 1.10,2013-03-22 08:41:00,
2013-03-22 01:56:00,37.8,26.0,29.54,NNW,338,0.0,2.0,63,0.00,,,0.00,weatherlink.com 1.10,2013-03-22 08:56:00,
2013-03-22 02:11:00,37.4,26.0,29.54,NNW,338,0.0,0.0,63,0.00,,,0.00,weatherlink.com 1.10,2013-03-22 09:11:00,
2013-03-22 02:26:00,37.2,26.0,29.54,NNW,338,2.0,2.0,65,0.00,,,0.00,weatherlink.com 1.10,2013-03-22 09:26:00,
2013-03-22 02:42:00,36.7,27.0,29.54,West,267,1.0,2.0,67,0.00,,,0.00,weatherlink.com 1.10,2013-03-22 09:42:00,
2013-03-22 02:57:00,36.1,27.0,29.54,SE,132,0.0,3.0,69,0.00,,,0.00,weatherlink.com 1.10,2013-03-22 09:57:00,
2013-03-22 03:12:00,35.4,25.0,29.54,SE,132,0.0,1.0,67,0.00,,,0.00,weatherlink.com 1.10,2013-03-22 10:12:00,
2013-03-22 03:27:00,35.4,25.0,29.54,SE,132,0.0,1.0,67,0.00,,,0.00,weatherlink.com 1.10,2013-03-22 10:27:00,
2013-03-22 03:42:00,35.1,26.0,29.54,SE,132,0.0,2.0,70,0.00,,,0.00,weatherlink.com 1.10,2013-03-22 10:42:00,
2013-03-22 03:57:00,34.7,26.0,29.54,South,171,0.0,1.0,71,0.00,,,0.00,weatherlink.com 1.10,2013-03-22 10:57:00,
2013-03-22 04:12:00,34.2,26.0,29.54,WNW,282,0.0,2.0,73,0.00,,,0.00,weatherlink.com 1.10,2013-03-22 11:12:00,
2013-03-22 04:27:00,33.8,27.0,29.54,WNW,290,0.0,2.0,75,0.00,,,0.00,weatherlink.com 1.10,2013-03-22 11:27:00,
2013-03-22 04:42:00,33.4,27.0,29.54,WNW,290,1.0,1.0,77,0.00,,,0.00,weatherlink.com 1.10,2013-03-22 11:42:00,
2013-03-22 04:57:00,32.7,26.0,29.54,WNW,290,0.0,2.0,77,0.00,,,0.00,weatherlink.com 1.10,2013-03-22 11:57:00,
2013-03-22 05:12:00,32.3,26.0,29.55,WNW,290,0.0,0.0,78,0.00,,,0.00,weatherlink.com 1.10,2013-03-22 12:12:00,
2013-03-22 05:27:00,32.1,26.0,29.55,WNW,290,0.0,1.0,79,0.00,,,0.00,weatherlink.com 1.10,2013-03-22 12:27:00,
2013-03-22 05:42:00,31.8,26.0,29.55,WNW,290,0.0,0.0,79,0.00,,,0.00,weatherlink.com 1.10,2013-03-22 12:42:00,
2013-03-22 05:57:00,31.9,26.0,29.56,WNW,290,0.0,1.0,80,0.00,,,0.00,weatherlink.com 1.10,2013-03-22 12:57:00,
2013-03-22 06:12:00,31.5,27.0,29.57,WNW,290,0.0,2.0,82,0.00,,,0.00,weatherlink.com 1.10,2013-03-22 13:12:00,
2013-03-22 06:27:00,31.2,26.0,29.57,WNW,290,1.0,1.0,81,0.00,,,0.00,weatherlink.com 1.10,2013-03-22 13:27:00,
2013-03-22 06:42:00,31.2,26.0,29.57,WNW,290,0.0,1.0,82,0.00,,,0.00,weatherlink.com 1.10,2013-03-22 13:42:00,
2013-03-22 06:57:00,31.4,27.0,29.58,WNW,290,0.0,0.0,83,0.00,,,0.00,weatherlink.com 1.10,2013-03-22 13:57:00,
2013-03-22 07:12:00,34.2,29.0,29.59,WNW,290,0.0,1.0,80,0.00,,,0.00,weatherlink.com 1.10,2013-03-22 14:12:00,
2013-03-22 07:27:00,38.0,30.0,29.59,WNW,290,0.0,0.0,72,0.00,,,0.00,weatherlink.com 1.10,2013-03-22 14:27:00,
2013-03-22 07:42:00,42.2,31.0,29.59,WNW,290,0.0,1.0,64,0.00,,,0.00,weatherlink.com 1.10,2013-03-22 14:42:00,
2013-03-22 07:57:00,46.8,30.0,29.59,NNW,329,0.0,2.0,53,0.00,,,0.00,weatherlink.com 1.10,2013-03-22 14:57:00,
2013-03-22 08:12:00,50.3,26.0,29.59,NW,310,1.0,4.0,39,0.00,,,0.00,weatherlink.com 1.10,2013-03-22 15:12:00,
2013-03-22 08:27:00,53.5,26.0,29.60,West,279,3.0,5.0,35,0.00,,,0.00,weatherlink.com 1.10,2013-03-22 15:27:00,
2013-03-22 08:43:00,56.3,23.0,29.60,WNW,300,0.0,3.0,28,0.00,,,0.00,weatherlink.com 1.10,2013-03-22 15:43:00,
2013-03-22 08:58:00,59.0,26.0,29.60,West,269,1.0,3.0,28,0.00,,,0.00,weatherlink.com 1.10,2013-03-22 15:58:00,
2013-03-22 09:13:00,60.8,27.0,29.60,East,98,1.0,3.0,28,0.00,,,0.00,weatherlink.com 1.10,2013-03-22 16:13:00,
2013-03-22 09:28:00,61.1,28.0,29.60,NNE,21,1.0,3.0,29,0.00,,,0.00,weatherlink.com 1.10,2013-03-22 16:28:00,
2013-03-22 09:43:00,61.9,28.0,29.60,NE,45,1.0,3.0,28,0.00,,,0.00,weatherlink.com 1.10,2013-03-22 16:43:00,
2013-03-22 09:58:00,64.5,29.0,29.59,East,85,1.0,3.0,26,0.00,,,0.00,weatherlink.com 1.10,2013-03-22 16:58:00,
2013-03-22 10:13:00,65.2,29.0,29.59,NNW,344,3.0,5.0,26,0.00,,,0.00,weatherlink.com 1.10,2013-03-22 17:13:00,
2013-03-22 10:28:00,63.8,27.0,29.58,WNW,298,3.0,5.0,25,0.00,,,0.00,weatherlink.com 1.10,2013-03-22 17:28:00,
2013-03-22 10:43:00,65.4,30.0,29.58,West,266,2.0,4.0,27,0.00,,,0.00,weatherlink.com 1.10,2013-03-22 17:43:00,
2013-03-22 10:58:00,66.2,32.0,29.58,SSW,210,2.0,4.0,28,0.00,,,0.00,weatherlink.com 1.10,2013-03-22 17:58:00,
2013-03-22 11:13:00,69.0,32.0,29.57,SW,232,3.0,5.0,25,0.00,,,0.00,weatherlink.com 1.10,2013-03-22 18:13:00,
2013-03-22 11:28:00,70.7,34.0,29.56,ESE,116,1.0,4.0,26,0.00,,,0.00,weatherlink.com 1.10,2013-03-22 18:28:00,
2013-03-22 11:43:00,71.9,34.0,29.55,SSW,202,1.0,5.0,25,0.00,,,0.00,weatherlink.com 1.10,2013-03-22 18:43:00,
2013-03-22 11:58:00,72.8,35.0,29.54,SSW,207,2.0,5.0,25,0.00,,,0.00,weatherlink.com 1.10,2013-03-22 18:58:00,
2013-03-22 12:13:00,72.8,32.0,29.54,ENE,68,5.0,7.0,22,0.00,,,0.00,weatherlink.com 1.10,2013-03-22 19:13:00,
2013-03-22 12:28:00,71.9,33.0,29.53,SSW,206,3.0,7.0,24,0.00,,,0.00,weatherlink.com 1.10,2013-03-22 19:28:00,
2013-03-22 12:43:00,72.1,31.0,29.52,SW,220,0.0,9.0,22,0.00,,,0.00,weatherlink.com 1.10,2013-03-22 19:43:00,
2013-03-22 12:58:00,72.3,29.0,29.52,NE,49,2.0,6.0,20,0.00,,,0.00,weatherlink.com 1.10,2013-03-22 19:58:00,
2013-03-22 13:13:00,74.9,34.0,29.51,SW,225,1.0,7.0,22,0.00,,,0.00,weatherlink.com 1.10,2013-03-22 20:13:00,
2013-03-22 13:28:00,75.7,31.0,29.50,WSW,253,0.0,6.0,19,0.00,,,0.00,weatherlink.com 1.10,2013-03-22 20:28:00,
2013-03-22 13:43:00,74.2,33.0,29.50,SE,128,2.0,8.0,22,0.00,,,0.00,weatherlink.com 1.10,2013-03-22 20:43:00,
2013-03-22 13:58:00,76.6,31.0,29.49,ESE,111,7.0,7.0,19,0.00,,,0.00,weatherlink.com 1.10,2013-03-22 20:58:00,
2013-03-22 14:14:00,74.2,32.0,29.48,East,79,2.0,10.0,21,0.00,,,0.00,weatherlink.com 1.10,2013-03-22 21:14:00,
2013-03-22 14:29:00,73.1,30.0,29.48,SSW,198,2.0,7.0,20,0.00,,,0.00,weatherlink.com 1.10,2013-03-22 21:29:00,
2013-03-22 14:44:00,75.3,34.0,29.47,SSW,204,3.0,7.0,22,0.00,,,0.00,weatherlink.com 1.10,2013-03-22 21:44:00,
2013-03-22 14:59:00,73.6,32.0,29.47,West,270,3.0,12.0,22,0.00,,,0.00,weatherlink.com 1.10,2013-03-22 21:59:00,
2013-03-22 15:14:00,74.3,25.0,29.47,NW,304,6.0,13.0,16,0.00,,,0.00,weatherlink.com 1.10,2013-03-22 22:14:00,
2013-03-22 15:29:00,75.3,24.0,29.47,SW,232,5.0,8.0,15,0.00,,,0.00,weatherlink.com 1.10,2013-03-22 22:29:00,
2013-03-22 15:44:00,74.4,25.0,29.47,WSW,245,2.0,13.0,16,0.00,,,0.00,weatherlink.com 1.10,2013-03-22 22:44:00,
2013-03-22 15:59:00,76.6,24.0,29.47,WSW,257,7.0,16.0,14,0.00,,,0.00,weatherlink.com 1.10,2013-03-22 22:59:00,
2013-03-22 16:14:00,75.1,23.0,29.48,West,264,2.0,16.0,14,0.00,,,0.00,weatherlink.com 1.10,2013-03-22 23:14:00,
2013-03-22 16:29:00,76.6,22.0,29.47,WNW,284,8.0,17.0,13,0.00,,,0.00,weatherlink.com 1.10,2013-03-22 23:29:00,
2013-03-22 16:44:00,74.9,21.0,29.48,WSW,254,9.0,15.0,13,0.00,,,0.00,weatherlink.com 1.10,2013-03-22 23:44:00,
2013-03-22 16:59:00,74.1,22.0,29.48,WSW,252,4.0,14.0,14,0.00,,,0.00,weatherlink.com 1.10,2013-03-22 23:59:00,
2013-03-22 17:14:00,74.4,14.0,29.48,NW,310,10.0,15.0,10,0.00,,,0.00,weatherlink.com 1.10,2013-03-23 00:14:00,
2013-03-22 17:29:00,74.1,18.0,29.48,West,272,3.0,13.0,12,0.00,,,0.00,weatherlink.com 1.10,2013-03-23 00:29:00,
2013-03-22 17:44:00,72.2,17.0,29.48,WNW,293,4.0,14.0,12,0.00,,,0.00,weatherlink.com 1.10,2013-03-23 00:44:00,
2013-03-22 17:59:00,71.1,12.0,29.49,NNW,331,9.0,10.0,10,0.00,,,0.00,weatherlink.com 1.10,2013-03-23 00:59:00,
2013-03-22 18:14:00,70.2,6.0,29.50,West,259,3.0,10.0,8,0.00,,,0.00,weatherlink.com 1.10,2013-03-23 01:14:00,
2013-03-22 18:29:00,68.0,1.0,29.50,West,265,4.0,10.0,7,0.00,,,0.00,weatherlink.com 1.10,2013-03-23 01:29:00,
2013-03-22 18:44:00,66.2,3.0,29.51,NW,310,4.0,7.0,8,0.00,,,0.00,weatherlink.com 1.10,2013-03-23 01:44:00,
2013-03-22 18:59:00,65.1,2.0,29.52,WNW,298,8.0,13.0,8,0.00,,,0.00,weatherlink.com 1.10,2013-03-23 01:59:00,
2013-03-22 19:14:00,64.6,-5.0,29.53,WNW,294,4.0,12.0,6,0.00,,,0.00,weatherlink.com 1.10,2013-03-23 02:14:00,
2013-03-22 19:29:00,63.8,-9.0,29.54,WNW,294,5.0,9.0,5,0.00,,,0.00,weatherlink.com 1.10,2013-03-23 02:29:00,
2013-03-22 19:44:00,62.3,-6.0,29.55,WNW,292,2.0,6.0,6,0.00,,,0.00,weatherlink.com 1.10,2013-03-23 02:44:00,
2013-03-22 19:59:00,61.1,-11.0,29.56,WNW,296,5.0,10.0,5,0.00,,,0.00,weatherlink.com 1.10,2013-03-23 02:59:00,
2013-03-22 20:14:00,60.3,-8.0,29.57,WNW,302,5.0,11.0,6,0.00,,,0.00,weatherlink.com 1.10,2013-03-23 03:14:00,
2013-03-22 20:29:00,59.1,-5.0,29.58,NNW,327,2.0,7.0,7,0.00,,,0.00,weatherlink.com 1.10,2013-03-23 03:29:00,
2013-03-22 20:44:00,57.5,-7.0,29.59,NNW,342,4.0,5.0,7,0.00,,,0.00,weatherlink.com 1.10,2013-03-23 03:44:00,
2013-03-22 20:59:00,57.1,-4.0,29.59,NW,325,2.0,4.0,8,0.00,,,0.00,weatherlink.com 1.10,2013-03-23 03:59:00,
2013-03-22 21:14:00,54.4,1.0,29.60,NNW,329,1.0,2.0,11,0.00,,,0.00,weatherlink.com 1.10,2013-03-23 04:14:00,
2013-03-22 21:29:00,52.3,6.0,29.60,North,5,0.0,3.0,15,0.00,,,0.00,weatherlink.com 1.10,2013-03-23 04:29:00,
2013-03-22 21:46:00,51.1,-2.0,29.61,NE,46,0.0,3.0,11,0.00,,,0.00,weatherlink.com 1.10,2013-03-23 04:46:00,
2013-03-22 22:00:00,49.0,10.0,29.61,NE,46,0.0,2.0,21,0.00,,,0.00,weatherlink.com 1.10,2013-03-23 05:00:00,
2013-03-22 22:15:00,46.1,8.0,29.61,NE,35,1.0,2.0,21,0.00,,,0.00,weatherlink.com 1.10,2013-03-23 05:15:00,
2013-03-22 22:30:00,44.8,8.0,29.62,NE,34,0.0,3.0,22,0.00,,,0.00,weatherlink.com 1.10,2013-03-23 05:30:00,
2013-03-22 22:45:00,43.7,9.0,29.62,NNE,33,0.0,1.0,24,0.00,,,0.00,weatherlink.com 1.10,2013-03-23 05:45:00,
2013-03-22 23:00:00,46.6,6.0,29.62,NNE,22,1.0,3.0,19,0.00,,,0.00,weatherlink.com 1.10,2013-03-23 06:00:00,
2013-03-22 23:15:00,46.1,9.0,29.62,West,267,2.0,4.0,22,0.00,,,0.00,weatherlink.com 1.10,2013-03-23 06:15:00,
2013-03-22 23:30:00,44.7,8.0,29.63,SW,225,0.0,4.0,22,0.00,,,0.00,weatherlink.com 1.10,2013-03-23 06:30:00,
2013-03-22 23:45:00,43.3,10.0,29.64,ESE,119,0.0,3.0,26,0.00,,,0.00,weatherlink.com 1.10,2013-03-23 06:45:00,